ALPHASAT

Last updated on Tue Sep 22 2026 00:03:12 GMT+0000 (Coordinated Universal Time)

1 39215U 13038A 26264.13763580 .00000133 00000+0 00000+0 0 9993 2 39215 3.0048 0.6921 0003698 191.3625 242.3969 1.00273938 44981
UTC large
Height (km)
Speed (km/s)
/
Latitude / Longitude
Inclination (degrees)
Orbital Period (minutes)
Azimuth
Elevation
Range (km)
Doppler Factor

Next 0 passes for location: London (51.5072 / 0.1276)

No passes found over London.
ALPHASAT